Location: Melbourne
(37.8170°S, 144.9670°E)
Time: 19:45:35
(UTC+10:00)

Explorer 11/Cluster Stage 4 - Visible Passes

Search period start: 28 June 2016 00:00
Search period end: 08 July 2016 00:00
Orbit: 467 x 1265 km, 28.8° (Epoch: 26 June)

Date Brightness Start Highest point End Pass type
(mag) Time Alt. Az. Time Alt. Az. Time Alt. Az.
28 Jun 8.3 04:31:41 30° NNE 04:31:41 30° NNE 04:36:39 10° ENE visible
28 Jun 8.1 06:13:55 13° WNW 06:19:10 39° N 06:26:09 10° ENE visible
29 Jun 8.5 04:22:47 27° NE 04:22:47 27° NE 04:26:44 10° ENE visible
29 Jun 8.1 06:05:01 16° WNW 06:09:22 37° N 06:16:06 10° ENE visible
30 Jun 8.7 04:13:51 23° NE 04:13:51 23° NE 04:16:48 10° ENE visible
30 Jun 8.1 05:56:04 19° WNW 05:59:36 35° N 06:06:01 10° ENE visible
01 Jul 9.0 04:04:54 18° ENE 04:04:54 18° ENE 04:06:53 10° ENE visible
01 Jul 8.0 05:47:07 22° NW 05:49:51 32° N 05:55:55 10° NE visible
02 Jul 9.3 03:55:57 14° ENE 03:55:57 14° ENE 03:56:57 10° ENE visible
02 Jul 8.0 05:38:10 24° NW 05:40:07 29° N 05:45:47 10° NE visible
03 Jul 9.5 03:47:00 10° ENE 03:47:00 10° ENE 03:47:01 10° ENE visible
03 Jul 8.0 05:29:13 24° NNW 05:30:24 26° N 05:35:37 10° NE visible
04 Jul 8.1 05:20:17 22° NNW 05:20:41 23° NNW 05:25:23 10° NE visible
04 Jul 9.1 07:07:12 10° NW 07:08:58 11° NNW 07:10:49 10° N visible
05 Jul 8.3 05:11:22 19° N 05:11:22 19° N 05:15:06 10° NNE visible
06 Jul 8.6 05:02:28 15° N 05:02:28 15° N 05:04:42 10° NNE visible
07 Jul 8.9 04:53:35 11° N 04:53:35 11° N 04:54:05 10° NNE visible
